Location: Norton
(51.3000°N, 0.8167°E)
Time: 12:47:46
(UTC+00:00)

Cosmos 1943 Rocket - Pass Details

Date: 03 March 2021
Orbit: 811 x 844 km, 71.0° (Epoch: 16 April)

Event Time Altitude Azimuth Distance (km) Brightness Sun altitude
Rises 20:41:49 0° 331° (NNW) 3,416 6.2 -28.3°
Reaches altitude 10° 20:44:34 10° 341° (NNW) 2,477 5.2 -28.6°
Enters shadow 20:48:37 30° 24° (NNE) 1,483 3.4 -29.2°
